Demopolis Municipal Airport, AL

10:35 PM CDT on March 27, 2017 (GMT -0500)
Demopolis Municipal Airport

Weather History for KDYA - March, 2014

Change the Weather History Date:

Sunday, March 2, 2014

  Actual Average (KNMM) Record (KNMM)
Temperature  
Mean Temperature 64 °F -  
Max Temperature 76 °F 61 °F 82 °F (2012)
Min Temperature 53 °F 41 °F 27 °F (2005)
Growing Degree Days 14 (Base 50)    
Moisture  
Dew Point 55 °F    
Average Humidity 66    
Maximum Humidity 100    
Minimum Humidity 44    
Precipitation  
Precipitation 0.00 in - - ()
Sea Level Pressure  
Sea Level Pressure 30.08 in    
Wind  
Wind Speed 1 mph (South)    
Max Wind Speed 12 mph    
Max Gust Speed 21 mph    
Visibility 9 miles    
Events      
Averages and records for this station are not official NWS values.
T = Trace of Precipitation, MM = Missing Value Source: NWS Daily Summary

Daily Weather History Graph

Daily Weather History Graph

Search for Another Location

Airport or City:

Trip Planner

Search our weather history database for the weather conditions in past years. The results will help you decide how hot, cold, wet, or windy it might be!

Date:

Astronomy

Mar. 02, 2014 Rise Set
Actual Time 6:18 AM CST 5:50 PM CST
Civil Twilight 5:53 AM CST 6:14 PM CST
Nautical Twilight 5:25 AM CST 6:43 PM CST
Astronomical Twilight 4:56 AM CST 7:11 PM CST
Moon 6:56 AM CST (3/2) 7:37 PM CST (3/2)
Length of Visible Light 12h 21m
Length of Day
11h 31m
Waxing Crescent, 3% of the Moon is Illuminated
Mar 2
Waxing Crescent
Mar 8
First Quarter
Mar 16
Full
Mar 23
Last Quarter
Mar 30
New

Hourly Weather History & Observations

Time (CST) Temp. Dew Point Humidity Pressure Visibility Wind Dir Wind Speed Gust Speed Precip Events Conditions
12:15 AM 59.5 °F 59.5 °F 100% 30.14 in 10.0 mi Calm Calm - N/A   Clear
12:35 AM 59.2 °F 59.2 °F 100% 30.14 in 10.0 mi Calm Calm - N/A   Clear
12:55 AM 59.0 °F 59.0 °F 100% 30.14 in 10.0 mi Calm Calm - N/A   Clear
1:15 AM 58.3 °F 58.3 °F 100% 30.13 in 10.0 mi Calm Calm - N/A   Clear
1:35 AM 58.1 °F 58.1 °F 100% 30.13 in 10.0 mi Calm Calm - N/A   Clear
1:55 AM 58.1 °F - N/A% 30.12 in 10.0 mi Calm Calm - N/A   Clear
2:15 AM 57.4 °F - N/A% 30.12 in 10.0 mi Calm Calm - N/A   Clear
2:35 AM 56.8 °F - N/A% 30.13 in 10.0 mi Calm Calm - N/A   Clear
2:55 AM 55.9 °F - N/A% 30.12 in 10.0 mi Calm Calm - N/A   Clear
3:15 AM 55.6 °F - N/A% 30.12 in 10.0 mi Calm Calm - N/A   Clear
3:35 AM 55.8 °F - N/A% 30.12 in 10.0 mi Calm Calm - N/A   Clear
3:55 AM 55.8 °F - N/A% 30.12 in 10.0 mi Calm Calm - N/A   Clear
4:15 AM 55.4 °F - N/A% 30.13 in 10.0 mi Calm Calm - N/A   Clear
4:35 AM 54.9 °F - N/A% 30.14 in 10.0 mi Calm Calm - N/A   Clear
4:55 AM 54.0 °F - N/A% 30.14 in 4.0 mi Calm Calm - N/A   Haze
5:15 AM 53.4 °F - N/A% 30.15 in 1.0 mi Calm Calm - N/A   Overcast
5:35 AM 54.9 °F - N/A% 30.16 in 7.0 mi Calm Calm - N/A   Overcast
5:55 AM 55.4 °F - N/A% 30.16 in 7.0 mi Calm Calm - N/A   Overcast
6:15 AM 55.4 °F - N/A% 30.16 in 5.0 mi Calm Calm - N/A   Haze
6:35 AM 55.8 °F - N/A% 30.19 in 7.0 mi Calm Calm - N/A   Overcast
6:55 AM 55.9 °F - N/A% 30.19 in 5.0 mi Calm Calm - N/A   Haze
7:15 AM 56.3 °F - N/A% 30.19 in 7.0 mi Calm Calm - N/A   Overcast
7:35 AM 56.8 °F - N/A% 30.20 in 7.0 mi Calm Calm - N/A   Overcast
7:55 AM 57.4 °F - N/A% 30.20 in 7.0 mi Calm Calm - N/A   Overcast
8:15 AM 58.1 °F 58.1 °F 100% 30.20 in 7.0 mi Calm Calm - N/A   Overcast
8:35 AM 58.5 °F 58.5 °F 100% 30.21 in 10.0 mi Calm Calm - N/A   Overcast
8:55 AM 60.4 °F 60.4 °F 100% 30.21 in 10.0 mi SSW 9.2 mph - N/A   Overcast
9:15 AM 60.8 °F 60.8 °F 100% 30.21 in 10.0 mi Calm Calm - N/A   Mostly Cloudy
9:35 AM 62.2 °F 60.4 °F 94% 30.20 in 10.0 mi Calm Calm - N/A   Scattered Clouds
9:55 AM 63.9 °F 53.4 °F 69% 30.20 in 10.0 mi Calm Calm - N/A   Clear
10:15 AM 65.8 °F 52.9 °F 63% 30.19 in 10.0 mi Calm Calm - N/A   Clear
10:35 AM 67.1 °F 53.4 °F 61% 30.18 in 10.0 mi SSE 9.2 mph - N/A   Clear
10:55 AM 67.3 °F 53.2 °F 61% 30.18 in 10.0 mi Calm Calm - N/A   Clear
11:15 AM 69.4 °F 53.2 °F 56% 30.17 in 10.0 mi Calm Calm - N/A   Scattered Clouds
11:35 AM 70.3 °F 53.4 °F 55% 30.16 in 10.0 mi SSE 3.5 mph - N/A   Overcast
11:55 AM 70.2 °F 53.1 °F 55% 30.15 in 10.0 mi SSE 5.8 mph - N/A   Overcast
12:15 PM 70.7 °F 52.9 °F 53% 30.13 in 10.0 mi Calm Calm - N/A   Overcast
12:35 PM 71.8 °F 52.5 °F 51% 30.12 in 10.0 mi South 3.5 mph - N/A   Overcast
12:55 PM 72.9 °F 52.3 °F 48% 30.10 in 10.0 mi Calm Calm - N/A   Overcast
1:15 PM 74.3 °F 52.5 °F 46% 30.08 in 10.0 mi South 4.6 mph 16.1 mph N/A   Mostly Cloudy
1:35 PM 73.8 °F 52.5 °F 47% 30.08 in 10.0 mi South 3.5 mph - N/A   Mostly Cloudy
1:55 PM 75.0 °F 52.3 °F 45% 30.06 in 10.0 mi South 11.5 mph - N/A   Mostly Cloudy
2:15 PM 73.4 °F 52.9 °F 49% 30.05 in 10.0 mi Calm Calm - N/A   Mostly Cloudy
2:35 PM 75.7 °F 52.7 °F 45% 30.04 in 10.0 mi Calm Calm - N/A   Scattered Clouds
2:55 PM 76.1 °F 52.7 °F 44% 30.02 in 10.0 mi Calm Calm - N/A   Scattered Clouds
3:15 PM 76.5 °F 52.9 °F 44% 30.01 in 10.0 mi SSE 3.5 mph 18.4 mph N/A   Scattered Clouds
3:35 PM 75.9 °F 52.9 °F 45% 30.01 in 10.0 mi South 6.9 mph - N/A   Clear
3:55 PM 76.5 °F 53.1 °F 44% 30.00 in 10.0 mi SSE 8.1 mph - N/A   Clear
4:15 PM 75.2 °F 53.6 °F 47% 29.99 in 10.0 mi Calm Calm - N/A   Scattered Clouds
4:35 PM 74.5 °F 53.6 °F 48% 29.99 in 10.0 mi South 5.8 mph - N/A   Mostly Cloudy
4:55 PM 74.7 °F 53.8 °F 48% 29.97 in 10.0 mi South 4.6 mph - N/A   Scattered Clouds
5:15 PM 73.4 °F 53.8 °F 50% 29.96 in 10.0 mi Calm Calm - N/A   Clear
5:35 PM 71.8 °F 54.1 °F 54% 29.96 in 10.0 mi Calm Calm - N/A   Clear
5:55 PM 70.2 °F 54.5 °F 57% 29.95 in 10.0 mi Calm Calm - N/A   Clear
6:15 PM 68.9 °F 54.5 °F 60% 29.94 in 10.0 mi Calm Calm - N/A   Clear
6:35 PM 65.7 °F 54.5 °F 67% 29.95 in 10.0 mi Calm Calm - N/A   Clear
6:55 PM 64.6 °F 54.7 °F 70% 29.94 in 10.0 mi Calm Calm - N/A   Clear
7:15 PM 66.0 °F 54.9 °F 67% 29.95 in 10.0 mi Calm Calm - N/A   Clear
7:35 PM 68.5 °F 55.4 °F 63% 29.95 in 10.0 mi Calm Calm - N/A   Clear
7:55 PM 68.4 °F 55.9 °F 64% 29.94 in 10.0 mi South 3.5 mph - N/A   Clear
8:15 PM 68.0 °F 56.3 °F 66% 29.94 in 10.0 mi Calm Calm - N/A   Clear
8:35 PM 67.3 °F 56.5 °F 68% 29.94 in 10.0 mi Calm Calm - N/A   Clear
8:55 PM 67.1 °F 56.7 °F 69% 29.94 in 10.0 mi Calm Calm - N/A   Clear
9:15 PM 66.6 °F 56.8 °F 71% 29.94 in 10.0 mi South 10.4 mph 17.3 mph N/A   Clear
9:35 PM 66.6 °F 57.0 °F 71% 29.94 in 10.0 mi South 11.5 mph 17.3 mph N/A   Clear
9:55 PM 66.2 °F 57.0 °F 72% 29.94 in 10.0 mi South 10.4 mph 17.3 mph N/A   Clear
10:15 PM 65.5 °F 56.8 °F 74% 29.95 in 10.0 mi South 6.9 mph - N/A   Clear
10:35 PM 65.5 °F 56.8 °F 74% 29.95 in 10.0 mi South 5.8 mph - N/A   Mostly Cloudy
10:55 PM 65.3 °F 56.8 °F 74% 29.96 in 10.0 mi SSW 8.1 mph - N/A   Overcast
11:55 PM 64.6 °F 57.2 °F 77% 29.94 in 10.0 mi SSW 11.5 mph 20.7 mph N/A   Overcast